When you browse on this site, cookies collect data to enhance your experience and personalize the content and advertising you see.
Visit our Privacy Policy to learn more. By continuing to use the site, you agree to this use of cookies and data.
  • In Czech Republic
  • List of Countries
  • For 7 days
  • Water Temperature
  • Weather Map
  • Weather Widgets
  • user-avatar
    Login

    Hourly Weather Townsville

    Today, 18 October, Friday

    Time Temperature Precipitation Wind Pressure Humidity
    00:00 +23°C° 0 mm 4 mps 754 mmHg 86%
    01:00 +23°C° 0 mm 4 mps 754 mmHg 86%
    02:00 +24°C° 0 mm 3 mps 754 mmHg 86%
    03:00 +24°C° 0 mm 3 mps 754 mmHg 86%
    04:00 +25°C° 0 mm 3 mps 754 mmHg 83%
    05:00 +25°C° 0 mm 3 mps 754 mmHg 81%
    06:00 +25°C° 0 mm 3 mps 755 mmHg 78%
    07:00 +26°C° 0 mm 3 mps 755 mmHg 75%
    08:00 +27°C° 0 mm 3 mps 755 mmHg 69%
    09:00 +29°C° 0 mm 3 mps 756 mmHg 63%
    10:00 +30°C° 0 mm 3 mps 755 mmHg 58%
    11:00 +31°C° 0 mm 3 mps 755 mmHg 56%
    12:00 +32°C° 0 mm 4 mps 754 mmHg 54%
    13:00 +33°C° 0 mm 4 mps 754 mmHg 52%
    14:00 +32°C° 0 mm 4 mps 753 mmHg 54%
    15:00 +30°C° 0 mm 4 mps 753 mmHg 55%
    16:00 +30°C° 0 mm 3 mps 752 mmHg 59%
    17:00 +28°C° 0 mm 3 mps 753 mmHg 68%
    18:00 +26°C° 0 mm 3 mps 753 mmHg 76%
    19:00 +25°C° 0 mm 3 mps 754 mmHg 84%
    20:00 +24°C° 0 mm 3 mps 754 mmHg 85%
    21:00 +24°C° 0 mm 3 mps 754 mmHg 86%
    22:00 +24°C° 0 mm 3 mps 755 mmHg 87%
    23:00 +24°C° 0 mm 3 mps 755 mmHg 88%

    Tomorrow, 19 October, Saturday

    Time Temperature Precipitation Wind Pressure Humidity
    00:00 +24°C° 0 mm 3 mps 754 mmHg 89%
    01:00 +22°C° 0 mm 3 mps 754 mmHg 91%
    02:00 +22°C° 0 mm 3 mps 754 mmHg 91%
    03:00 +23°C° 0 mm 2 mps 754 mmHg 92%
    04:00 +21°C° 0 mm 2 mps 754 mmHg 93%
    05:00 +23°C° 0 mm 2 mps 755 mmHg 88%
    06:00 +24°C° 0 mm 2 mps 755 mmHg 84%
    07:00 +25°C° 0 mm 2 mps 755 mmHg 79%
    08:00 +27°C° 0 mm 2 mps 755 mmHg 69%
    09:00 +29°C° 0 mm 2 mps 755 mmHg 59%
    10:00 +33°C° 0 mm 3 mps 755 mmHg 49%
    11:00 +33°C° 0 mm 3 mps 755 mmHg 48%
    12:00 +33°C° 0 mm 3 mps 754 mmHg 47%
    13:00 +34°C° 0 mm 4 mps 753 mmHg 46%
    14:00 +33°C° 0 mm 4 mps 753 mmHg 49%
    15:00 +32°C° 0 mm 4 mps 753 mmHg 53%
    16:00 +30°C° 0 mm 4 mps 752 mmHg 56%
    17:00 +28°C° 0 mm 4 mps 753 mmHg 65%
    18:00 +26°C° 0 mm 3 mps 753 mmHg 73%
    19:00 +25°C° 0 mm 3 mps 753 mmHg 82%
    20:00 +24°C° 0 mm 2 mps 754 mmHg 85%
    21:00 +23°C° 0 mm 2 mps 755 mmHg 88%
    22:00 +23°C° 0 mm 1 mps 755 mmHg 91%
    23:00 +23°C° 0 mm 1 mps 755 mmHg 92%

    Day after tomorrow, 20 October, Sunday

    Time Temperature Precipitation Wind Pressure Humidity
    00:00 +23°C° 0 mm 1 mps 755 mmHg 92%
    01:00 +22°C° 0 mm 1 mps 754 mmHg 92%
    02:00 +22°C° 0 mm 1 mps 754 mmHg 92%
    03:00 +22°C° 0 mm 1 mps 754 mmHg 93%
    04:00 +21°C° 0 mm 1 mps 754 mmHg 93%
    05:00 +22°C° 0 mm 1 mps 754 mmHg 88%
    06:00 +23°C° 0 mm 1 mps 755 mmHg 83%
    07:00 +24°C° 0 mm 1 mps 755 mmHg 77%
    08:00 +27°C° 0 mm 2 mps 755 mmHg 60%
    09:00 +31°C° 0 mm 2 mps 755 mmHg 44%
    10:00 +35°C° 0 mm 3 mps 755 mmHg 27%
    11:00 +35°C° 0 mm 3 mps 754 mmHg 30%
    12:00 +35°C° 0 mm 4 mps 754 mmHg 32%
    13:00 +35°C° 0 mm 4 mps 753 mmHg 35%
    14:00 +34°C° 0 mm 5 mps 752 mmHg 43%
    15:00 +32°C° 0 mm 5 mps 752 mmHg 51%
    16:00 +29°C° 0 mm 5 mps 752 mmHg 59%
    17:00 +28°C° 0 mm 4 mps 752 mmHg 67%
    18:00 +26°C° 0 mm 3 mps 753 mmHg 75%
    19:00 +25°C° 0 mm 3 mps 754 mmHg 82%
    20:00 +24°C° 0 mm 3 mps 754 mmHg 83%
    21:00 +24°C° 0 mm 3 mps 755 mmHg 84%
    22:00 +24°C° 0 mm 3 mps 755 mmHg 85%
    23:00 +23°C° 0 mm 2 mps 755 mmHg 86%

    21 October, Monday

    Time Temperature Precipitation Wind Pressure Humidity
    00:00 +23°C° 0 mm 2 mps 755 mmHg 87%
    01:00 +23°C° 0 mm 2 mps 754 mmHg 88%
    02:00 +23°C° 0 mm 2 mps 754 mmHg 89%
    03:00 +23°C° 0 mm 2 mps 754 mmHg 89%
    04:00 +21°C° 0 mm 2 mps 754 mmHg 89%
    05:00 +23°C° 0 mm 2 mps 755 mmHg 84%
    06:00 +24°C° 0 mm 2 mps 755 mmHg 80%
    07:00 +25°C° 0 mm 2 mps 755 mmHg 76%
    08:00 +26°C° 0.1 mm 3 mps 756 mmHg 71%
    09:00 +27°C° 0.1 mm 3 mps 756 mmHg 67%
    10:00 +28°C° 0.1 mm 4 mps 756 mmHg 62%
    11:00 +29°C° 0.1 mm 5 mps 755 mmHg 57%
    12:00 +30°C° 0.1 mm 6 mps 755 mmHg 53%
    13:00 +32°C° 0.1 mm 7 mps 755 mmHg 48%
    14:00 +30°C° 0 mm 7 mps 754 mmHg 49%
    15:00 +30°C° 0 mm 7 mps 754 mmHg 50%
    16:00 +29°C° 0 mm 7 mps 754 mmHg 51%
    17:00 +27°C° 0 mm 6 mps 754 mmHg 60%
    18:00 +26°C° 0 mm 5 mps 755 mmHg 68%
    19:00 +23°C° 0 mm 5 mps 756 mmHg 77%
    20:00 +23°C° 0 mm 5 mps 756 mmHg 79%
    21:00 +22°C° 0 mm 5 mps 756 mmHg 81%
    22:00 +22°C° 0 mm 5 mps 757 mmHg 83%
    23:00 +22°C° 0 mm 5 mps 756 mmHg 83%

    22 October, Tuesday

    Time Temperature Precipitation Wind Pressure Humidity
    00:00 +21°C° 0 mm 5 mps 756 mmHg 83%
    01:00 +21°C° 0 mm 5 mps 756 mmHg 83%
    02:00 +21°C° 0 mm 5 mps 756 mmHg 83%
    03:00 +21°C° 0 mm 5 mps 756 mmHg 84%
    04:00 +20°C° 0 mm 5 mps 755 mmHg 85%
    05:00 +21°C° 0 mm 5 mps 756 mmHg 81%
    06:00 +22°C° 0 mm 5 mps 756 mmHg 77%
    07:00 +23°C° 0 mm 5 mps 757 mmHg 72%
    08:00 +25°C° 0 mm 5 mps 757 mmHg 64%
    09:00 +27°C° 0 mm 6 mps 757 mmHg 56%
    10:00 +28°C° 0 mm 6 mps 757 mmHg 48%
    11:00 +28°C° 0 mm 6 mps 757 mmHg 49%
    12:00 +28°C° 0 mm 7 mps 756 mmHg 49%
    13:00 +28°C° 0 mm 7 mps 755 mmHg 49%
    14:00 +28°C° 0 mm 7 mps 755 mmHg 50%
    15:00 +28°C° 0 mm 7 mps 755 mmHg 51%
    16:00 +27°C° 0 mm 7 mps 754 mmHg 53%
    17:00 +26°C° 0 mm 7 mps 755 mmHg 58%
    18:00 +24°C° 0 mm 6 mps 755 mmHg 64%
    19:00 +23°C° 0 mm 6 mps 756 mmHg 69%
    20:00 +22°C° 0 mm 6 mps 756 mmHg 72%
    21:00 +22°C° 0 mm 6 mps 757 mmHg 75%
    22:00 +21°C° 0 mm 6 mps 757 mmHg 78%
    23:00 +21°C° 0.1 mm 6 mps 757 mmHg 79%

    23 October, Wednesday

    Time Temperature Precipitation Wind Pressure Humidity
    00:00 +21°C° 0.1 mm 6 mps 757 mmHg 81%
    01:00 +21°C° 0.1 mm 6 mps 756 mmHg 82%
    02:00 +20°C° 0 mm 5 mps 756 mmHg 85%
    03:00 +19°C° 0 mm 5 mps 756 mmHg 88%
    04:00 +17°C° 0 mm 5 mps 756 mmHg 91%
    05:00 +17°C° 0 mm 5 mps 756 mmHg 86%
    06:00 +19°C° 0 mm 4 mps 756 mmHg 81%
    07:00 +20°C° 0 mm 4 mps 757 mmHg 77%
    08:00 +22°C° 0 mm 5 mps 757 mmHg 65%
    09:00 +25°C° 0 mm 5 mps 757 mmHg 53%
    10:00 +28°C° 0 mm 5 mps 757 mmHg 42%
    11:00 +28°C° 0 mm 6 mps 756 mmHg 42%
    12:00 +29°C° 0 mm 7 mps 755 mmHg 42%
    13:00 +29°C° 0 mm 7 mps 755 mmHg 42%
    14:00 +29°C° 0 mm 7 mps 754 mmHg 45%
    15:00 +28°C° 0 mm 7 mps 754 mmHg 47%
    16:00 +28°C° 0 mm 7 mps 753 mmHg 49%
    17:00 +26°C° 0 mm 7 mps 754 mmHg 58%
    18:00 +23°C° 0 mm 6 mps 754 mmHg 66%
    19:00 +21°C° 0 mm 5 mps 755 mmHg 74%
    20:00 +21°C° 0 mm 5 mps 755 mmHg 79%
    21:00 +20°C° 0 mm 5 mps 756 mmHg 83%
    22:00 +20°C° 0 mm 5 mps 756 mmHg 87%
    23:00 +20°C° 0.1 mm 5 mps 756 mmHg 88%
    Show more